SCP
0 0 0 0 0 0 0 0 0 0 0 0 0 0 0 0 0 0 0 0 0 0 0 0 0 0 0 0 0 0 0 0 0 0 0 0 0 0 0 0 0 0 0 0
0 0 0 0 0 0 0 0 0 0 0 0 0 0 0 0 0 0 0 0 0 0 0 0 0 0 0 0 0 0 0 0 0 0 0 0 0 0 0 0 0 0 0 0
0 0 0 0 0 0 0 0 0 0 0 0 0 0 0 0 0 0 0 0 0 0 0 0 0 0 0 0 0 0 0 0 0 0 0 0 0 0 0 0 0 0 0 0
0 0 0 0 0 0 0 0 0 0 0 0 0 0 0 0 0 0 0 0 0 0 0 0 0 0 0 0 0 0 0 0 0 0 0 0 0 0 0 0 0 0 0 0
0 0 0 0 0 0 0 0 0 0 0 0 0 0 0 0 0 0 0 0 0 0 0 0 0 0 0 0 0 0 0 0 0 0 0 0 0 0 0 0 0 0 0 0
0 0 0 0 0 0 0 0 0 0 0 0 0 0 0 0 0 0 0 0 0 0 0 0 0 0 0 0 0 0 0 0 0 0 0 0 0 0 0 0 0 0 0 0
0 0 0 0 0 0 0 0 0 0 0 0 0 0 0 0 0 0 0 0 0 0 0 0 0 0 0 0 0 0 0 0 0 0 0 0 0 0 0 0 0 0 0 0
0 0 0 0 0 0 0 0 0 0 0 0 0 0 0 0 0 0 0 0 0 0 0 0 0 0 0 0 0 0 0 0 0 0 0 0 0 0 0 0 0 0 0 0
0 0 0 0 0 0 0 0 0 0 0 0 0 0 0 0 0 0 0 0 0 0 0 0 0 0 0 0 0 0 0 0 0 0 0 0 0 0 0 0 0 0 0 0
0 0 0 0 0 0 0 0 0 0 0 0 0 0 0 0 0 0 0 0 0 0 0 0 0 0 0 0 0 0 0 0 0 0 0 0 0 0 0 0 0 0 0 0
0 0 0 0 0 0 0 0 0 0 0 0 0 0 0 0 0 0 0 0 0 0 0 0 0 0 0 0 0 0 0 0 0 0 0 0 0 0 0 0 0 0 0 0
0 0 0 0 0 0 0 0 0 0 0 0 0 0 0 0 0 0 0 0 0 0 -0 -0 0 0 0 0 0 0 0 0 0 0 0 0 0 0 0 0 0 0 0 0
0 0 0 0 0 0 0 0 0 0 0 0 0 0 0 0 0 0 0 0 0 0 0 0 0 0 0 0 0 0 0 0 0 0 0 0 0 0 0 0 0 0 0 0
0 0 0 0 0 0 0 0 0 0 0 0 0 0 0 0 0 0 0 0 0 0 0 0 0 0 0 0 0 0 0 0 0 0 0 0 0 0 0 0 0 0 0 0
0 0 0 0 0 0 0 0 0 0 0 0 0 0 0 0 0 0 0 0 0 0 0 0 0 0 0 0 0 0 0 0 0 0 0 0 0 0 0 0 0 0 0 0
0 0 0 0 0 0 0 0 0 0 0 0 0 0 0 0 0 0 0 0 0 0 0 0 0 0 0 0 0 0 0 0 0 0 0 0 0 0 0 0 0 0 0 0
0 0 0 0 0 0 0 0 0 0 0 0 0 0 0 0 0 0 0 0 0 0 0 0 0 0 0 0 0 0 0 0 0 0 0 0 0 0 0 0 0 0 0 0
0 0 0 0 0 0 0 0 0 0 0 0 0 0 0 0 0 0 0 0 0 0 0 0 0 0 0 0 0 0 0 0 0 0 0 0 0 0 0 0 0 0 0 0
0 0 0 0 0 0 0 0 0 0 0 0 0 0 0 0 0 0 0 0 0 0 0 0 0 0 0 0 0 0 0 0 0 0 0 0 0 0 0 0 0 0 0 0
0 0 0 0 0 0 0 0 0 0 -0 0 0 0 0 0 -0 0 0 0 0 0 0 0 0 0 0 0 0 0 0 0 0 0 0 0 0 0 0 0 0 0 0 0
0 0 0 0 0 0 0 0 0 0 0 0 0 0 -0 -0 -0 0 0 -0 0 0 0 0 0 0 0 0 0 0 0 0 0 0 0 0 0 0 0 0 0 0 0 0
0 0 0 0 0 0 0 0 0 0 0 0 0 0 -0 0 0 0 0 0 0 0 0 0 0 0 0 0 0 0 0 0 0 0 0 0 0 0 0 0 0 0 0 0
0 0 0 0 0 0 0 0 0 0 0 0 0 -0 -0 0 -0 0 0 0 0 0 0 0 0 0 0 0 0 0 0 0 0 0 0 0 0 0 0 0 0 0 0 0
0 0 0 0 0 0 0 0 0 0 0 0 0 -0 0 0 0 0 -0 0 0 0 0 0 0 0 0 0 0 0 0 0 0 0 0 0 0 0 0 0 0 0 0 0
0 0 0 0 -0 -0 0 0 0 0 0 0 -0 -0 0 0 -0 0 -0 0 0 0 0 0 0 0 0 0 0 0 0 0 0 0 0 0 0 0 0 0 0 0 0 0
-0 -0 0 0 0 0 0 0 0 0 0 -0 -0 -0 -0 0 0 0 0 0 0 0 0 0 0 0 0 0 0 0 0 0 0 0 0 0 0 0 0 0 0 0 0 0
Wind_Speed_500mb
30 20 25 26 19 25 26 30 35 35 32 38 35 41 40 47 45 31 36 37 43 46 44 43 42 40 37 31 30 29 27 25 20 16 15 12 9 9 6 2 3 7 9 10
29 28 20 19 13 17 23 29 33 30 30 26 34 44 40 39 45 44 40 41 38 40 47 45 43 38 37 34 32 30 27 25 20 17 15 15 14 12 9 2 4 7 9 10
28 15 4 10 22 25 25 24 29 34 33 36 43 52 46 41 52 50 35 41 35 40 45 44 44 42 38 34 32 29 28 26 22 21 16 15 11 7 7 6 5 7 8 9
16 6 8 14 19 16 24 20 18 27 29 29 27 40 42 36 33 24 31 32 34 33 43 45 44 41 40 36 33 31 29 28 25 21 16 15 7 8 11 7 3 6 8 8
3 13 18 22 22 17 22 18 22 28 30 34 36 24 44 34 28 18 32 21 19 26 41 45 46 45 41 38 34 32 31 28 25 22 17 15 12 11 10 7 3 2 6 6
28 18 14 22 23 22 25 28 33 34 31 29 34 31 34 14 15 19 20 6 12 21 32 38 41 42 42 40 35 33 30 27 25 22 20 18 18 15 11 8 6 5 3 6
26 27 29 8 23 26 19 23 21 26 24 33 32 19 22 26 5 9 6 7 10 18 28 37 43 44 45 41 37 33 34 31 27 25 22 21 19 16 14 10 9 7 5 4
28 24 17 13 14 19 22 23 19 36 32 34 46 26 15 6 11 18 17 9 12 18 26 35 40 42 46 42 39 34 33 29 27 25 23 21 20 16 15 14 11 10 9 7
21 20 8 10 16 20 9 14 23 29 33 32 37 47 42 47 33 21 17 19 18 18 21 27 34 40 44 44 42 38 35 31 28 26 24 22 21 19 18 17 15 13 11 8
20 23 26 20 13 29 30 28 26 19 35 39 33 40 27 35 22 21 12 10 13 14 18 22 29 38 39 41 41 39 38 35 32 29 24 22 22 20 19 18 17 17 16 16
25 27 34 31 26 29 21 26 32 34 28 27 34 28 21 18 17 4 24 16 7 9 15 20 26 32 37 38 40 40 41 39 36 31 28 26 24 23 21 20 19 19 20 20
30 31 29 39 38 30 29 37 36 26 34 27 24 24 30 13 7 9 16 17 8 5 15 22 27 36 46 49 45 43 41 41 39 34 31 30 28 25 24 22 22 22 23 22
22 14 22 33 30 42 19 26 19 20 23 36 32 29 11 6 12 27 30 34 39 41 28 33 37 44 51 63 62 51 46 44 43 38 35 33 30 29 26 25 25 25 24 24
20 27 35 30 38 37 15 30 32 34 24 35 36 42 40 29 24 43 61 57 45 43 49 48 48 60 52 60 72 60 51 51 47 41 38 36 34 31 30 28 29 29 27 27
26 39 39 43 50 46 38 37 41 45 46 43 44 52 45 47 45 43 64 53 43 43 40 39 50 48 62 65 65 69 52 55 50 46 41 39 36 35 32 31 32 33 30 29
29 36 37 42 46 45 46 49 49 48 48 51 54 53 51 62 59 52 69 49 45 51 44 40 41 44 49 65 74 60 56 61 51 48 44 41 40 37 36 34 35 35 33 32
29 28 35 42 44 44 34 43 42 47 47 46 37 47 44 48 36 53 43 41 37 43 38 33 36 42 46 52 57 60 60 57 55 50 47 44 42 40 38 37 37 36 34 33
37 39 29 31 38 42 35 38 25 28 34 36 39 40 35 40 56 52 45 37 25 21 21 24 24 28 36 43 48 52 59 62 57 51 50 48 46 43 42 41 39 37 34 32
42 37 25 25 30 36 47 39 20 18 28 33 33 31 30 38 45 26 33 8 12 18 18 15 13 19 27 37 43 51 61 64 60 55 53 51 47 46 46 45 42 40 36 32
31 40 27 26 19 28 27 4 3 16 29 23 26 21 24 29 17 8 9 26 26 18 14 10 8 14 24 32 41 52 62 63 63 58 54 53 49 48 47 46 45 41 37 33
23 24 27 27 23 20 11 4 7 20 17 23 27 28 27 14 12 40 33 25 22 17 13 9 12 15 21 31 40 56 64 64 61 58 55 49 49 47 46 46 44 42 39 34
18 12 16 16 23 29 15 7 10 15 26 34 40 39 38 35 33 33 38 31 23 19 14 12 14 16 20 27 50 56 65 67 67 60 56 52 50 47 46 47 44 42 40 37
23 27 21 14 11 8 15 21 29 33 38 38 32 33 30 39 43 39 41 40 25 21 18 16 17 19 22 27 40 53 64 68 63 61 53 56 58 53 49 49 50 46 43 40
21 39 23 13 17 26 30 31 36 36 38 35 36 41 38 42 39 40 41 41 24 21 22 19 21 24 24 27 35 46 56 62 60 57 61 63 64 64 57 54 59 54 54 49
30 7 15 29 36 42 35 30 27 27 27 32 37 35 43 44 34 33 31 28 27 21 24 23 26 27 29 30 35 42 48 53 57 57 64 56 63 64 64 64 68 67 61 63
40 35 21 25 39 39 27 38 36 35 36 38 33 36 37 32 27 27 28 27 24 22 24 26 28 31 32 34 38 43 47 49 53 58 57 54 50 57 56 63 63 61 61 56
Wind_Direction_500mb
229 254 248 286 327 317 295 284 281 285 291 293 277 272 269 274 269 223 236 227 211 206 198 191 188 184 179 176 169 167 169 167 158 146 144 137 133 124 106 49 360 355 2 8
230 246 277 334 303 274 279 280 279 286 290 293 284 279 283 283 274 256 233 231 221 206 194 190 187 187 183 179 174 172 171 172 158 160 157 159 152 152 152 142 3 5 358 3
242 291 58 298 283 282 270 277 291 299 311 289 281 275 273 261 254 242 238 249 223 207 197 191 192 191 186 186 180 174 174 170 163 176 161 157 165 142 108 80 38 7 356 356
264 35 275 249 252 263 279 298 299 286 289 287 312 294 284 281 278 219 248 217 242 211 200 198 198 198 193 189 182 177 177 174 178 168 170 162 151 155 165 140 136 342 351 351
138 207 236 253 276 287 279 303 273 284 278 289 276 264 284 288 239 224 201 187 218 219 195 200 201 198 193 191 185 178 177 179 181 174 172 166 161 174 152 147 96 357 346 356
269 290 274 277 296 275 280 274 265 261 259 265 281 274 283 328 6 34 57 134 209 198 195 196 196 195 193 191 186 180 174 175 172 169 167 163 169 162 163 158 137 129 82 14
250 222 229 200 268 243 231 270 278 275 263 265 290 266 272 306 112 2 144 161 184 189 189 191 190 192 190 190 187 180 175 173 172 175 171 177 170 163 167 158 164 150 127 100
274 269 194 143 265 307 296 272 271 288 290 294 300 277 288 104 158 160 177 197 204 198 193 194 195 194 191 190 189 182 179 174 170 165 165 176 173 159 166 163 165 157 153 137
312 287 64 230 263 272 277 255 270 290 287 282 277 272 261 258 208 167 215 182 196 201 200 199 196 195 193 192 189 184 181 178 172 167 176 179 172 171 173 174 168 161 162 143
289 291 275 278 295 257 249 276 280 258 269 270 279 292 302 19 44 9 179 196 193 207 207 202 200 198 198 194 191 184 183 183 176 173 179 183 177 179 177 180 172 170 171 157
292 280 276 280 254 280 290 237 240 255 256 271 272 270 32 17 41 70 71 37 0 224 231 224 208 205 202 199 196 190 185 183 180 177 183 179 175 178 184 178 177 169 159 151
281 289 286 279 291 291 277 274 272 272 275 271 266 271 295 305 54 59 10 356 12 300 245 232 223 210 203 200 198 195 190 187 185 183 182 179 181 181 180 176 173 170 159 153
343 274 279 276 258 235 249 283 285 280 281 267 276 274 219 278 282 300 307 318 302 296 275 242 222 216 212 212 200 194 194 192 192 187 185 182 184 179 177 177 171 165 161 160
306 268 261 266 277 288 214 244 259 267 262 271 272 288 280 278 289 287 292 295 286 279 273 253 236 235 218 216 213 204 196 200 197 189 188 187 182 177 176 173 171 168 166 161
247 257 264 267 272 277 280 275 273 274 272 273 276 271 274 286 293 286 282 268 266 277 270 255 248 233 230 225 219 209 200 206 196 192 187 186 181 176 176 177 175 174 173 174
237 257 269 268 272 277 275 272 270 270 273 277 281 280 278 279 271 285 277 276 281 270 262 262 243 233 223 223 223 206 200 208 192 192 189 185 183 179 181 179 179 179 177 176
276 270 271 262 267 276 278 262 272 275 275 281 285 286 293 290 292 267 285 277 284 284 269 270 258 232 221 220 215 206 199 204 193 192 190 187 185 180 181 180 178 178 177 180
257 257 259 262 270 265 260 256 269 285 284 281 280 292 297 281 286 285 284 282 285 286 284 271 255 232 219 211 209 199 198 201 192 192 191 188 186 180 181 182 181 178 178 179
235 250 263 255 257 265 273 273 298 285 286 304 294 298 318 352 329 310 2 56 312 298 288 288 258 224 210 204 201 195 197 197 194 192 191 189 184 183 184 184 183 182 180 176
225 228 232 251 262 263 275 118 27 305 289 6 3 335 327 336 325 280 291 311 311 294 291 274 234 199 198 196 194 192 194 193 196 192 190 188 184 186 187 186 186 185 182 179
244 239 237 241 250 258 269 19 264 275 323 342 320 307 301 292 255 313 316 309 300 292 281 250 212 203 201 192 190 196 197 197 197 193 194 185 187 186 189 187 188 186 184 183
249 252 239 249 253 266 42 242 261 326 308 307 308 310 301 282 293 299 308 310 298 279 261 235 211 200 195 190 193 201 202 201 203 198 189 187 183 188 191 190 190 190 188 187
256 243 279 264 271 256 260 263 277 287 289 289 300 299 300 296 280 291 305 304 286 271 249 229 215 203 196 193 205 203 206 209 208 202 195 186 188 187 191 192 194 192 192 194
278 265 260 293 280 283 295 289 286 279 283 294 293 292 300 296 292 278 289 286 278 262 247 230 212 205 200 196 210 204 207 207 207 203 196 196 194 191 190 197 199 194 195 199
288 255 265 268 262 276 277 285 295 288 285 288 289 292 295 297 281 274 285 302 293 255 239 224 213 209 205 197 201 202 202 200 203 207 202 199 204 203 201 202 208 208 207 207
269 259 246 256 267 279 293 299 296 287 280 282 280 286 293 299 299 297 297 298 288 257 235 224 217 213 208 201 199 203 201 200 205 200 198 198 198 204 207 210 215 219 224 224
Wind_Speed_850mb
30 20 25 26 19 25 26 30 35 35 32 38 35 41 40 47 45 31 36 37 43 46 44 43 42 40 37 31 30 29 27 25 20 16 15 12 9 9 6 2 3 7 9 10
29 28 20 19 13 17 23 29 33 30 30 26 34 44 40 39 45 44 40 41 38 40 47 45 43 38 37 34 32 30 27 25 20 17 15 15 14 12 9 2 4 7 9 10
28 15 4 10 22 25 25 24 29 34 33 36 43 52 46 41 52 50 35 41 35 40 45 44 44 42 38 34 32 29 28 26 22 21 16 15 11 7 7 6 5 7 8 9
16 6 8 14 19 16 24 20 18 27 29 29 27 40 42 36 33 24 31 32 34 33 43 45 44 41 40 36 33 31 29 28 25 21 16 15 7 8 11 7 3 6 8 8
3 13 18 22 22 17 22 18 22 28 30 34 36 24 44 34 28 18 32 21 19 26 41 45 46 45 41 38 34 32 31 28 25 22 17 15 12 11 10 7 3 2 6 6
28 18 14 22 23 22 25 28 33 34 31 29 34 31 34 14 15 19 20 6 12 21 32 38 41 42 42 40 35 33 30 27 25 22 20 18 18 15 11 8 6 5 3 6
26 27 29 8 23 26 19 23 21 26 24 33 32 19 22 26 5 9 6 7 10 18 28 37 43 44 45 41 37 33 34 31 27 25 22 21 19 16 14 10 9 7 5 4
28 24 17 13 14 19 22 23 19 36 32 34 46 26 15 6 11 18 17 9 12 18 26 35 40 42 46 42 39 34 33 29 27 25 23 21 20 16 15 14 11 10 9 7
21 20 8 10 16 20 9 14 23 29 33 32 37 47 42 47 33 21 17 19 18 18 21 27 34 40 44 44 42 38 35 31 28 26 24 22 21 19 18 17 15 13 11 8
20 23 26 20 13 29 30 28 26 19 35 39 33 40 27 35 22 21 12 10 13 14 18 22 29 38 39 41 41 39 38 35 32 29 24 22 22 20 19 18 17 17 16 16
25 27 34 31 26 29 21 26 32 34 28 27 34 28 21 18 17 4 24 16 7 9 15 20 26 32 37 38 40 40 41 39 36 31 28 26 24 23 21 20 19 19 20 20
30 31 29 39 38 30 29 37 36 26 34 27 24 24 30 13 7 9 16 17 8 5 15 22 27 36 46 49 45 43 41 41 39 34 31 30 28 25 24 22 22 22 23 22
22 14 22 33 30 42 19 26 19 20 23 36 32 29 11 6 12 27 30 34 39 41 28 33 37 44 51 63 62 51 46 44 43 38 35 33 30 29 26 25 25 25 24 24
20 27 35 30 38 37 15 30 32 34 24 35 36 42 40 29 24 43 61 57 45 43 49 48 48 60 52 60 72 60 51 51 47 41 38 36 34 31 30 28 29 29 27 27
26 39 39 43 50 46 38 37 41 45 46 43 44 52 45 47 45 43 64 53 43 43 40 39 50 48 62 65 65 69 52 55 50 46 41 39 36 35 32 31 32 33 30 29
29 36 37 42 46 45 46 49 49 48 48 51 54 53 51 62 59 52 69 49 45 51 44 40 41 44 49 65 74 60 56 61 51 48 44 41 40 37 36 34 35 35 33 32
29 28 35 42 44 44 34 43 42 47 47 46 37 47 44 48 36 53 43 41 37 43 38 33 36 42 46 52 57 60 60 57 55 50 47 44 42 40 38 37 37 36 34 33
37 39 29 31 38 42 35 38 25 28 34 36 39 40 35 40 56 52 45 37 25 21 21 24 24 28 36 43 48 52 59 62 57 51 50 48 46 43 42 41 39 37 34 32
42 37 25 25 30 36 47 39 20 18 28 33 33 31 30 38 45 26 33 8 12 18 18 15 13 19 27 37 43 51 61 64 60 55 53 51 47 46 46 45 42 40 36 32
31 40 27 26 19 28 27 4 3 16 29 23 26 21 24 29 17 8 9 26 26 18 14 10 8 14 24 32 41 52 62 63 63 58 54 53 49 48 47 46 45 41 37 33
23 24 27 27 23 20 11 4 7 20 17 23 27 28 27 14 12 40 33 25 22 17 13 9 12 15 21 31 40 56 64 64 61 58 55 49 49 47 46 46 44 42 39 34
18 12 16 16 23 29 15 7 10 15 26 34 40 39 38 35 33 33 38 31 23 19 14 12 14 16 20 27 50 56 65 67 67 60 56 52 50 47 46 47 44 42 40 37
23 27 21 14 11 8 15 21 29 33 38 38 32 33 30 39 43 39 41 40 25 21 18 16 17 19 22 27 40 53 64 68 63 61 53 56 58 53 49 49 50 46 43 40
21 39 23 13 17 26 30 31 36 36 38 35 36 41 38 42 39 40 41 41 24 21 22 19 21 24 24 27 35 46 56 62 60 57 61 63 64 64 57 54 59 54 54 49
30 7 15 29 36 42 35 30 27 27 27 32 37 35 43 44 34 33 31 28 27 21 24 23 26 27 29 30 35 42 48 53 57 57 64 56 63 64 64 64 68 67 61 63
40 35 21 25 39 39 27 38 36 35 36 38 33 36 37 32 27 27 28 27 24 22 24 26 28 31 32 34 38 43 47 49 53 58 57 54 50 57 56 63 63 61 61 56
Wind_Direction_850mb
229 254 248 286 327 317 295 284 281 285 291 293 277 272 269 274 269 223 236 227 211 206 198 191 188 184 179 176 169 167 169 167 158 146 144 137 133 124 106 49 360 355 2 8
230 246 277 334 303 274 279 280 279 286 290 293 284 279 283 283 274 256 233 231 221 206 194 190 187 187 183 179 174 172 171 172 158 160 157 159 152 152 152 142 3 5 358 3
242 291 58 298 283 282 270 277 291 299 311 289 281 275 273 261 254 242 238 249 223 207 197 191 192 191 186 186 180 174 174 170 163 176 161 157 165 142 108 80 38 7 356 356
264 35 275 249 252 263 279 298 299 286 289 287 312 294 284 281 278 219 248 217 242 211 200 198 198 198 193 189 182 177 177 174 178 168 170 162 151 155 165 140 136 342 351 351
138 207 236 253 276 287 279 303 273 284 278 289 276 264 284 288 239 224 201 187 218 219 195 200 201 198 193 191 185 178 177 179 181 174 172 166 161 174 152 147 96 357 346 356
269 290 274 277 296 275 280 274 265 261 259 265 281 274 283 328 6 34 57 134 209 198 195 196 196 195 193 191 186 180 174 175 172 169 167 163 169 162 163 158 137 129 82 14
250 222 229 200 268 243 231 270 278 275 263 265 290 266 272 306 112 2 144 161 184 189 189 191 190 192 190 190 187 180 175 173 172 175 171 177 170 163 167 158 164 150 127 100
274 269 194 143 265 307 296 272 271 288 290 294 300 277 288 104 158 160 177 197 204 198 193 194 195 194 191 190 189 182 179 174 170 165 165 176 173 159 166 163 165 157 153 137
312 287 64 230 263 272 277 255 270 290 287 282 277 272 261 258 208 167 215 182 196 201 200 199 196 195 193 192 189 184 181 178 172 167 176 179 172 171 173 174 168 161 162 143
289 291 275 278 295 257 249 276 280 258 269 270 279 292 302 19 44 9 179 196 193 207 207 202 200 198 198 194 191 184 183 183 176 173 179 183 177 179 177 180 172 170 171 157
292 280 276 280 254 280 290 237 240 255 256 271 272 270 32 17 41 70 71 37 0 224 231 224 208 205 202 199 196 190 185 183 180 177 183 179 175 178 184 178 177 169 159 151
281 289 286 279 291 291 277 274 272 272 275 271 266 271 295 305 54 59 10 356 12 300 245 232 223 210 203 200 198 195 190 187 185 183 182 179 181 181 180 176 173 170 159 153
343 274 279 276 258 235 249 283 285 280 281 267 276 274 219 278 282 300 307 318 302 296 275 242 222 216 212 212 200 194 194 192 192 187 185 182 184 179 177 177 171 165 161 160
306 268 261 266 277 288 214 244 259 267 262 271 272 288 280 278 289 287 292 295 286 279 273 253 236 235 218 216 213 204 196 200 197 189 188 187 182 177 176 173 171 168 166 161
247 257 264 267 272 277 280 275 273 274 272 273 276 271 274 286 293 286 282 268 266 277 270 255 248 233 230 225 219 209 200 206 196 192 187 186 181 176 176 177 175 174 173 174
237 257 269 268 272 277 275 272 270 270 273 277 281 280 278 279 271 285 277 276 281 270 262 262 243 233 223 223 223 206 200 208 192 192 189 185 183 179 181 179 179 179 177 176
276 270 271 262 267 276 278 262 272 275 275 281 285 286 293 290 292 267 285 277 284 284 269 270 258 232 221 220 215 206 199 204 193 192 190 187 185 180 181 180 178 178 177 180
257 257 259 262 270 265 260 256 269 285 284 281 280 292 297 281 286 285 284 282 285 286 284 271 255 232 219 211 209 199 198 201 192 192 191 188 186 180 181 182 181 178 178 179
235 250 263 255 257 265 273 273 298 285 286 304 294 298 318 352 329 310 2 56 312 298 288 288 258 224 210 204 201 195 197 197 194 192 191 189 184 183 184 184 183 182 180 176
225 228 232 251 262 263 275 118 27 305 289 6 3 335 327 336 325 280 291 311 311 294 291 274 234 199 198 196 194 192 194 193 196 192 190 188 184 186 187 186 186 185 182 179
244 239 237 241 250 258 269 19 264 275 323 342 320 307 301 292 255 313 316 309 300 292 281 250 212 203 201 192 190 196 197 197 197 193 194 185 187 186 189 187 188 186 184 183
249 252 239 249 253 266 42 242 261 326 308 307 308 310 301 282 293 299 308 310 298 279 261 235 211 200 195 190 193 201 202 201 203 198 189 187 183 188 191 190 190 190 188 187
256 243 279 264 271 256 260 263 277 287 289 289 300 299 300 296 280 291 305 304 286 271 249 229 215 203 196 193 205 203 206 209 208 202 195 186 188 187 191 192 194 192 192 194
278 265 260 293 280 283 295 289 286 279 283 294 293 292 300 296 292 278 289 286 278 262 247 230 212 205 200 196 210 204 207 207 207 203 196 196 194 191 190 197 199 194 195 199
288 255 265 268 262 276 277 285 295 288 285 288 289 292 295 297 281 274 285 302 293 255 239 224 213 209 205 197 201 202 202 200 203 207 202 199 204 203 201 202 208 208 207 207
269 259 246 256 267 279 293 299 296 287 280 282 280 286 293 299 299 297 297 298 288 257 235 224 217 213 208 201 199 203 201 200 205 200 198 198 198 204 207 210 215 219 224 224